Weather in Protaras

Cyprus     35°00′51″N   34°02′57″E
temp.,
°C
wind,
m/s
gust,
m/s
humid.,
%
clouds,
%
prec.,
mm/h
press.,
hPa
HPBL,
m
17 may, mon
mon1700:00+22nnw33650 0.0 1008110
03:00+21nw44630 0.0 1008180
06:00+20nw22673 0.0 1008135
09:00+22n11575 0.0 1009352
12:00+22se536445 0.0 1010774
15:00+22ssw436182 0.0 1010566
18:00+22sw77735 0.0 1010353
21:00+23nnw24730 0.0 1010162
18 may, tue
tue1800:00+21n44710 0.0 1012270
03:00+21nne33720 0.0 1011222
06:00+21nne22720 0.0 1012192
09:00+22ne32670 0.0 1014437
12:00+23ene32670 0.0 1014432
15:00+23s32640 0.0 1013433
18:00+23sw66660 0.0 1012280
21:00+22sw45780 0.0 1013259
19 may, wed
wed1900:00+22se11770 0.0 101284
03:00+22ne33741 0.0 1012133
06:00+21ene22750 0.0 1012177
09:00+22ene21690 0.0 1013347
12:00+23se42701 0.0 1014364
15:00+24s43640 0.0 1012357
18:00+24ssw44660 0.0 1011225
21:00+23wsw44740 0.0 101195
20 may, thu
thu2000:00+22n22750 0.0 101127
03:00+22nnw22720 0.0 101039
06:00+22ene11730 0.0 101034
09:00+23e22700 0.0 1011193
12:00+24se32650 0.0 1011285
15:00+25sse43645 0.0 1010311
18:00+25sw22620 0.0 1009180
21:00+24sw12694 0.0 101015
21 may, fri
fri2100:00+23n11680 0.0 101011
03:00+23w11655 0.0 100911
06:00+23nnw226117 0.0 100911
09:00+25nne125165 0.0 1010138
12:00+25se43507 0.0 1010209
15:00+25s54615 0.0 1009295
18:00+25sw5560100 0.0 1008151
21:00+23sse2371100 0.0 100936